sat.trackr.live / text

‹ back to catalog

STARLINK-6182

NORAD 56878 · 2023-083C

PAYLOAD ACTIVE UNKNOWN

§ Identity

Operator
Country
US
Launch date
2023-06-12
Launch site
AFETR
Launch vehicle
Mass (kg)
RCS (m²)

Purposes: comms

External: N2YO · Heavens-Above · Gunter

§ Orbital elements

Epoch: 2026-09-20T17:11:03.084288Z

Period
94.27 min
Inclination
43.0041°
Eccentricity
0.0002122
Mean motion
15.27564588 rev/d
Perigee alt
481.6 km
Apogee alt
484.6 km
Semi-major
6,861.2 km
B*
-3.1266e-5
RAAN
64.0913°
Arg perigee
272.1308°
Mean anomaly
87.9301°
Rev number
18,145

§ Raw data

STARLINK-61821 56878U 23083C   26263.71600792 -.00001122  00000+0 -31266-4 0  99902 56878  43.0041  64.0913 0002122 272.1308  87.9301 15.27564588181459

JSON: /api/v1/satellites/56878 · /tle

For live sub-satellite position, see the globe view (requires WebGL).

§ Visibility from observer

Set your observer location to see the next 7 days of passes ≥ 10°. The values pass through the URL so the page stays shareable.

No JS? Fill the form by hand. The geolocation button needs JavaScript.